FENGYUN 1C DEB, 29897

Orbit data source: Space-Track

FENGYUN 1C DEB, 29897 is space debris in SSO originally from a launch on Mon, 10 May 1999 UTC launched from the Taiyaun Space Center, China (TSC). Fengyun 1C debris stems from the Chinese weather satellite Fengyun-1C, which was intentionally destroyed by a Chinese anti-satellite missile in 2007. This event dramatically increased the amount of space debris, with thousands of trackable fragments posing hazards to satellites and human spaceflight. The Fengyun 1C debris cloud has become a focal point in discussions about space sustainability and the need for international regulations to prevent the creation of new debris.

Loading next visibility...
Identifier
29897, 1999-025GT
Orbit
SSO
Country
Flag of CNCN / PRC
Related business
Manufacturer
Unknown
Mission
Spacecraft
Bus & Motor
Unknown
Mass
Unknown
Launch date (UTC)
1999-05-10 (27 years ago)
Launch vehicle
Unknown
Launch site
Taiyaun Space Center, China (TSC)
Object type
Payload
Rocket body
Debris
Shape & HBR
Unknown shape, 0.1 m
Radar Cross Section
Small (<0.1 m²)

Expand to show TLE details & history
Last TLE update: 1 day ago

TLE from 1 day ago
0 FENGYUN 1C DEB
1 29897U 99025GT  26145.08375687  .00001300  00000-0  13835-2 0  9998
2 29897  98.6186 354.6604 0299304  73.2064  75.4287 13.57805700951567
Epoch: 2026-05-25T02:00Z
TLE epoch observation values (Epoch: 2026-05-25T02:00:36.593Z)
Latitude
27.71326°
Longitude
-93.62576°
Altitude
997.41 km
Speed
7.38 km/s
True Right ascension
11h 56m 48s
True Declination
27° 34' 35"
Sunlit
Object was in daylight at epoch
Visualization orbit readout
Latitude
Unknown
Longitude
Unknown
Altitude
Unknown
Speed
Unknown
Apparent Right ascension
Unknown
Apparent Declination
Unknown
Sunlit
N/A
Visualization observer readout
Local Sidereal Time
13:02:35
Azimuth
Unknown
Elevation
Unknown
Doppler factor
Unknown
Orbital elements
Apogee altitude
1,262.967 km
Perigee altitude
818.857 km
Semi-major axis
7,419.049 km
Eccentricity
0.02993
Inclination
98.6186°
RAAN
354.6604°
Arg. of periapsis
73.2064°
True anomaly
78.77777°
Mean anomaly
75.4287°
Eccentric anomaly
77.10031°
Mean motion
3.39642 °/min
Orbital period
105.99 mins
BSTAR
0.0013835
Loading maneuver chart data...
Computing Atmospheric mass density...
Loading historical data...
Loading historical data...
Loading historical data...
Loading historical data...
Loading historical data...
Loading historical data...
Loading historical data...

Documentation

Showing up to 5 results
|